Simultaneous Nadir Overpasses (SNOs) Predictions

Prediction of SNOs between AQUA and NOAA-19 Satellite Orbit:

Table of predicted SNOs for the next 14.0 days since TLE Epoch: 11/26/2016
Index Date (AQUA) Time (AQUA) Lat,Lon (AQUA) SZA (AQUA ) Date (NOAA-19) Time (NOAA-19) Lat,Lon (NOAA-19) SZA (NOAA-19 ) Distance(km) Time Diff (sec)
1 11/27/2016 05:09:03 80.93, 62.39 103.85 11/27/2016 05:08:55 80.94, 62.34 103.87 1.28 8
2 11/29/2016 10:42:48 -80.94, 158.81 75.73 11/29/2016 10:42:50 -80.94, 158.66 75.71 2.71 2
3 12/01/2016 16:16:32 80.94,-104.59 104.64 12/01/2016 16:16:48 80.94,-104.51 104.62 1.38 16
4 12/03/2016 21:00:50 80.95,-175.80 104.99 12/03/2016 20:59:45 80.95,-175.77 105.01 0.55 65
5 12/03/2016 21:50:17 -80.95, -8.21 75.00 12/03/2016 21:50:44 -80.94, -8.20 75.02 1.15 27
6 12/06/2016 02:34:34 -80.94, -79.10 74.74 12/06/2016 02:33:41 -80.95, -79.26 74.69 2.98 53
7 12/06/2016 03:24:00 80.94, 88.61 105.26 12/06/2016 03:24:41 80.94, 88.50 105.26 2.13 41
8 12/08/2016 08:08:18 80.95, 17.32 105.56 12/08/2016 08:07:38 80.95, 17.17 105.59 2.51 40
9 12/08/2016 08:57:44 -80.93,-174.72 74.49 12/08/2016 08:58:37 -80.94,-174.80 74.50 1.90 53
10 12/10/2016 13:42:02 -80.95, 113.95 74.23 12/10/2016 13:41:34 -80.95, 114.08 74.23 2.25 28




NCC Satellite Simultaneous Nadir Overpasses (SNOs) Prediction Service
